Location: Unnamed
(47.6264°N, 122.3366°W)
Time: 04:29:12
(UTC-08:00)

DIWATA 2B (PO-101) - Visible Passes

Search period start: 08 December 2023 00:00
Search period end: 18 December 2023 00:00
Orbit: 579 x 590 km, 98.0° (Epoch: 08 December)

Date Brightness Start Highest point End Pass type
(mag) Time Alt. Az. Time Alt. Az. Time Alt. Az.
08 Dec ? 16:59:26 10° N 17:03:10 32° WNW 17:06:51 10° SW visible
09 Dec ? 17:05:55 10° N 17:09:30 28° WNW 17:13:03 10° SW visible
10 Dec ? 17:12:25 10° N 17:15:49 25° WNW 17:19:13 10° WSW visible
11 Dec ? 17:18:56 10° NNW 17:22:09 22° WNW 17:25:20 10° WSW visible
12 Dec ? 17:25:29 10° NNW 17:28:28 19° WNW 17:31:26 10° WSW visible
13 Dec ? 17:32:03 10° NNW 17:34:45 17° WNW 17:37:28 10° WSW visible
14 Dec ? 17:38:40 10° NNW 17:41:04 15° WNW 17:43:27 10° W visible
15 Dec ? 17:45:21 10° NNW 17:47:21 13° WNW 17:49:21 10° W visible
16 Dec ? 17:52:08 10° NW 17:53:38 12° WNW 17:55:07 10° WNW visible
17 Dec ? 17:59:21 10° NW 17:59:54 10° NW 18:00:28 10° WNW visible
